VRG1039 SBPA-SBFL

Flight info

Callsign VRG1039
Flight time 0h 41m
Altitude 29000
Route ANLER UM540 DADMO
Aircraft B739/M-SDE2E3FGHIRWXY/LB1

Departure

Time 2026-04-24 22:08
Airport Porto Alegre-Salgado Filho International Airport (SBPA)

Arrival

Time 2026-04-24 22:50
Airport Hercílio Luz International Airport (SBFL)
Time Latitude Longitude Altitude Speed Heading
2026-04-24 21:41 -29.99105 -51.17713 18 ft 0 kts 12°
2026-04-24 21:59 -29.99120 -51.17716 22 ft 2 kts 348°
2026-04-24 21:59 -29.99136 -51.17710 21 ft 2 kts 328°
2026-04-24 21:59 -29.99149 -51.17699 18 ft 2 kts 323°
2026-04-24 21:59 -29.99160 -51.17686 21 ft 2 kts 300°
2026-04-24 22:00 -29.99167 -51.17669 20 ft 2 kts 284°
2026-04-24 22:00 -29.99170 -51.17651 18 ft 2 kts 272°
2026-04-24 22:00 -29.99170 -51.17643 18 ft 0 kts 269°
2026-04-24 22:04 -29.99171 -51.17667 18 ft 9 kts 266°
2026-04-24 22:04 -29.99212 -51.17695 19 ft 11 kts 185°
2026-04-24 22:05 -29.99284 -51.17750 18 ft 13 kts 266°
2026-04-24 22:05 -29.99284 -51.17870 19 ft 11 kts 271°
2026-04-24 22:05 -29.99286 -51.17987 19 ft 13 kts 262°
2026-04-24 22:05 -29.99310 -51.18076 20 ft 10 kts 248°
2026-04-24 22:06 -29.99326 -51.18123 19 ft 0 kts 250°
2026-04-24 22:06 -29.99329 -51.18132 19 ft 0 kts 249°
2026-04-24 22:06 -29.99340 -51.18164 19 ft 8 kts 248°
2026-04-24 22:06 -29.99361 -51.18218 19 ft 7 kts 240°
2026-04-24 22:07 -29.99398 -51.18256 19 ft 7 kts 212°
2026-04-24 22:07 -29.99431 -51.18259 21 ft 1 kts 142°
2026-04-24 22:07 -29.99435 -51.18253 21 ft 3 kts 119°
2026-04-24 22:07 -29.99440 -51.18224 20 ft 0 kts 93°
2026-04-24 22:08 -29.99442 -51.18123 21 ft 42 kts 91°
2026-04-24 22:08 -29.99454 -51.17457 18 ft 120 kts 91°
2026-04-24 22:08 -29.99477 -51.16264 52 ft 177 kts 91°
2026-04-24 22:08 -29.99505 -51.14799 746 ft 186 kts 92°
2026-04-24 22:09 -29.99525 -51.13225 1399 ft 201 kts 88°
2026-04-24 22:09 -29.99454 -51.11563 2067 ft 207 kts 83°
2026-04-24 22:09 -29.99284 -51.10028 2561 ft 183 kts 80°
2026-04-24 22:09 -29.99159 -51.08530 2093 ft 195 kts 76°
2026-04-24 22:10 -29.98447 -51.07262 1764 ft 191 kts 34°
2026-04-24 22:10 -29.97373 -51.06372 1766 ft 192 kts 37°
2026-04-24 22:10 -29.96286 -51.05371 1900 ft 213 kts 38°
2026-04-24 22:10 -29.95069 -51.04208 2163 ft 241 kts 39°
2026-04-24 22:11 -29.93748 -51.02913 2709 ft 254 kts 39°
2026-04-24 22:11 -29.92388 -51.01555 3422 ft 262 kts 39°
2026-04-24 22:11 -29.91008 -51.00154 4208 ft 266 kts 39°
2026-04-24 22:11 -29.89631 -50.98742 4975 ft 271 kts 39°
2026-04-24 22:12 -29.88210 -50.97274 5715 ft 276 kts 39°
2026-04-24 22:12 -29.86773 -50.95780 6465 ft 280 kts 39°
2026-04-24 22:12 -29.85316 -50.94259 7193 ft 284 kts 40°
2026-04-24 22:12 -29.83845 -50.92720 7902 ft 288 kts 40°
2026-04-24 22:13 -29.82355 -50.91158 8618 ft 292 kts 40°
2026-04-24 22:13 -29.80843 -50.89572 9315 ft 297 kts 40°
2026-04-24 22:13 -29.79310 -50.87963 10027 ft 300 kts 40°
2026-04-24 22:13 -29.77755 -50.86332 10408 ft 316 kts 40°
2026-04-24 22:14 -29.76068 -50.84565 10580 ft 338 kts 40°
2026-04-24 22:14 -29.74282 -50.82694 10848 ft 355 kts 40°
2026-04-24 22:14 -29.72436 -50.80758 11387 ft 361 kts 40°
2026-04-24 22:14 -29.70575 -50.78806 12048 ft 364 kts 40°
2026-04-24 22:15 -29.68695 -50.76835 12645 ft 368 kts 40°
2026-04-24 22:15 -29.66785 -50.74833 13242 ft 372 kts 40°
2026-04-24 22:15 -29.64861 -50.72819 13846 ft 376 kts 40°
2026-04-24 22:15 -29.62931 -50.70800 14366 ft 380 kts 40°
2026-04-24 22:16 -29.60968 -50.68747 14896 ft 383 kts 39°
2026-04-24 22:16 -29.58986 -50.66675 15438 ft 387 kts 39°
2026-04-24 22:16 -29.56983 -50.64585 15995 ft 390 kts 39°
2026-04-24 22:16 -29.54967 -50.62484 16533 ft 393 kts 37°
2026-04-24 22:17 -29.52787 -50.60593 17041 ft 394 kts 30°
2026-04-24 22:17 -29.50494 -50.58830 17541 ft 397 kts 29°
2026-04-24 22:17 -29.48175 -50.57083 18059 ft 400 kts 29°
2026-04-24 22:17 -29.45843 -50.55330 18572 ft 401 kts 29°
2026-04-24 22:18 -29.43493 -50.53566 18977 ft 406 kts 28°
2026-04-24 22:18 -29.41116 -50.51782 19381 ft 409 kts 28°
2026-04-24 22:18 -29.38727 -50.49986 19810 ft 412 kts 28°
2026-04-24 22:18 -29.36353 -50.48198 20226 ft 415 kts 28°
2026-04-24 22:19 -29.34119 -50.46058 20586 ft 428 kts 47°
2026-04-24 22:19 -29.32644 -50.43046 20987 ft 439 kts 68°
2026-04-24 22:19 -29.31564 -50.39769 21396 ft 440 kts 58°
2026-04-24 22:19 -29.29781 -50.36959 21729 ft 435 kts 42°
2026-04-24 22:20 -29.27576 -50.34607 22139 ft 432 kts 33°
2026-04-24 22:20 -29.25161 -50.32542 22510 ft 433 kts 30°
2026-04-24 22:20 -29.22682 -50.30562 22885 ft 436 kts 29°
2026-04-24 22:20 -29.20181 -50.28576 23249 ft 439 kts 30°
2026-04-24 22:21 -29.17681 -50.26554 23617 ft 442 kts 30°
2026-04-24 22:21 -29.15172 -50.24483 23912 ft 445 kts 31°
2026-04-24 22:21 -29.12666 -50.22379 24199 ft 448 kts 31°
2026-04-24 22:21 -29.10152 -50.20249 24472 ft 451 kts 31°
2026-04-24 22:22 -29.07624 -50.18096 24760 ft 454 kts 31°
2026-04-24 22:22 -29.05088 -50.15935 25035 ft 457 kts 31°
2026-04-24 22:22 -29.02562 -50.13783 25306 ft 459 kts 31°
2026-04-24 22:22 -28.99989 -50.11593 25591 ft 462 kts 30°
2026-04-24 22:23 -28.97407 -50.09399 25868 ft 464 kts 30°
2026-04-24 22:23 -28.94808 -50.07193 26141 ft 466 kts 30°
2026-04-24 22:23 -28.92193 -50.04976 26414 ft 469 kts 30°
2026-04-24 22:23 -28.89571 -50.02754 26695 ft 471 kts 30°
2026-04-24 22:24 -28.86929 -50.00516 26961 ft 473 kts 30°
2026-04-24 22:24 -28.84279 -49.98274 27213 ft 476 kts 30°
2026-04-24 22:24 -28.81616 -49.96021 27439 ft 478 kts 30°
2026-04-24 22:24 -28.78941 -49.93751 27508 ft 480 kts 30°
2026-04-24 22:25 -28.76265 -49.91476 27801 ft 480 kts 30°
2026-04-24 22:25 -28.73583 -49.89220 28186 ft 479 kts 29°
2026-04-24 22:25 -28.70893 -49.86959 28517 ft 480 kts 30°
2026-04-24 22:25 -28.68249 -49.84721 28816 ft 479 kts 29°
2026-04-24 22:26 -28.65571 -49.82458 28988 ft 477 kts 29°
2026-04-24 22:26 -28.60314 -49.77999 29036 ft 458 kts 29°
2026-04-24 22:27 -28.55272 -49.73736 29015 ft 445 kts 28°
2026-04-24 22:27 -28.50271 -49.69527 28709 ft 451 kts 29°
2026-04-24 22:27 -28.47766 -49.67413 28327 ft 447 kts 29°
2026-04-24 22:28 -28.45274 -49.65314 27854 ft 444 kts 29°
2026-04-24 22:28 -28.42804 -49.63241 27404 ft 439 kts 29°
2026-04-24 22:28 -28.40383 -49.61215 26961 ft 436 kts 29°
2026-04-24 22:28 -28.37953 -49.59183 26499 ft 432 kts 30°
2026-04-24 22:29 -28.33151 -49.55171 25620 ft 426 kts 30°
2026-04-24 22:29 -28.30770 -49.53183 25174 ft 423 kts 30°
2026-04-24 22:29 -28.28407 -49.51209 24697 ft 418 kts 30°
2026-04-24 22:30 -28.26096 -49.49277 24270 ft 408 kts 30°
2026-04-24 22:30 -28.23834 -49.47388 23835 ft 399 kts 30°
2026-04-24 22:30 -28.21621 -49.45542 23349 ft 391 kts 30°
2026-04-24 22:30 -28.19453 -49.43736 22880 ft 382 kts 30°
2026-04-24 22:31 -28.17343 -49.41980 22520 ft 369 kts 31°
2026-04-24 22:31 -28.15293 -49.40274 22092 ft 361 kts 31°
2026-04-24 22:31 -28.13315 -49.38630 21713 ft 354 kts 31°
2026-04-24 22:31 -28.11336 -49.36986 21336 ft 352 kts 30°
2026-04-24 22:32 -28.09347 -49.35339 20980 ft 359 kts 31°
2026-04-24 22:32 -28.07280 -49.33636 20611 ft 373 kts 31°
2026-04-24 22:32 -28.05176 -49.31911 20194 ft 371 kts 32°
2026-04-24 22:32 -28.03103 -49.30210 19778 ft 365 kts 32°
2026-04-24 22:33 -28.01048 -49.28526 19385 ft 363 kts 32°
2026-04-24 22:33 -27.99005 -49.26853 18990 ft 362 kts 32°
2026-04-24 22:33 -27.96969 -49.25186 18569 ft 361 kts 32°
2026-04-24 22:33 -27.94962 -49.23544 18143 ft 359 kts 32°
2026-04-24 22:34 -27.92939 -49.21889 17716 ft 357 kts 32°
2026-04-24 22:34 -27.90929 -49.20245 17298 ft 355 kts 32°
2026-04-24 22:34 -27.88932 -49.18612 16894 ft 352 kts 32°
2026-04-24 22:34 -27.86953 -49.16996 16497 ft 350 kts 33°
2026-04-24 22:35 -27.84981 -49.15385 16108 ft 348 kts 33°
2026-04-24 22:35 -27.83037 -49.13770 15702 ft 346 kts 35°
2026-04-24 22:35 -27.81154 -49.12074 15335 ft 344 kts 36°
2026-04-24 22:35 -27.79330 -49.10381 14956 ft 343 kts 37°
2026-04-24 22:36 -27.77492 -49.08670 14563 ft 341 kts 37°
2026-04-24 22:36 -27.75661 -49.06976 14210 ft 339 kts 37°
2026-04-24 22:36 -27.73843 -49.05304 13792 ft 335 kts 37°
2026-04-24 22:36 -27.72037 -49.03648 13388 ft 333 kts 37°
2026-04-24 22:37 -27.70246 -49.02011 12990 ft 330 kts 37°
2026-04-24 22:37 -27.68466 -49.00386 12619 ft 328 kts 37°
2026-04-24 22:37 -27.66695 -48.98770 12240 ft 326 kts 37°
2026-04-24 22:37 -27.65109 -48.96955 11850 ft 327 kts 56°
2026-04-24 22:38 -27.64276 -48.94593 11582 ft 323 kts 80°
2026-04-24 22:38 -27.64247 -48.92109 11339 ft 317 kts 98°
2026-04-24 22:38 -27.64601 -48.89666 11000 ft 315 kts 100°
2026-04-24 22:38 -27.64985 -48.87236 10648 ft 314 kts 100°
2026-04-24 22:39 -27.65357 -48.84823 10408 ft 309 kts 99°
2026-04-24 22:39 -27.65706 -48.82464 10231 ft 301 kts 99°
2026-04-24 22:39 -27.66039 -48.80167 10093 ft 293 kts 99°
2026-04-24 22:39 -27.66365 -48.77919 9830 ft 289 kts 100°
2026-04-24 22:40 -27.67047 -48.75807 9494 ft 287 kts 121°
2026-04-24 22:40 -27.68106 -48.73915 9201 ft 284 kts 123°
2026-04-24 22:40 -27.69155 -48.72038 8886 ft 282 kts 122°
2026-04-24 22:40 -27.70185 -48.70163 8587 ft 280 kts 122°
2026-04-24 22:41 -27.71199 -48.68296 8303 ft 278 kts 122°
2026-04-24 22:41 -27.72208 -48.66433 8015 ft 276 kts 122°
2026-04-24 22:41 -27.73194 -48.64609 7694 ft 276 kts 121°
2026-04-24 22:41 -27.73869 -48.63359 7476 ft 275 kts 121°
2026-04-24 22:42 -27.75185 -48.60919 7052 ft 273 kts 121°
2026-04-24 22:42 -27.76166 -48.59101 6727 ft 267 kts 121°
2026-04-24 22:42 -27.77119 -48.57333 6424 ft 260 kts 121°
2026-04-24 22:42 -27.78046 -48.55612 6125 ft 254 kts 121°
2026-04-24 22:43 -27.78652 -48.54486 5932 ft 250 kts 121°
2026-04-24 22:43 -27.79561 -48.52799 5660 ft 253 kts 121°
2026-04-24 22:43 -27.80488 -48.51076 5371 ft 260 kts 121°
2026-04-24 22:43 -27.81429 -48.49327 5051 ft 260 kts 121°
2026-04-24 22:44 -27.82370 -48.47578 4746 ft 261 kts 121°
2026-04-24 22:44 -27.83273 -48.45810 4402 ft 257 kts 111°
2026-04-24 22:44 -27.83508 -48.43884 4076 ft 243 kts 80°
2026-04-24 22:44 -27.82934 -48.42161 3832 ft 232 kts 56°
2026-04-24 22:45 -27.81823 -48.40806 3647 ft 242 kts 35°
2026-04-24 22:45 -27.80408 -48.39764 3397 ft 240 kts 30°
2026-04-24 22:45 -27.79001 -48.38824 3129 ft 229 kts 29°
2026-04-24 22:45 -27.77544 -48.38282 2873 ft 217 kts 360°
2026-04-24 22:46 -27.76126 -48.38621 2699 ft 203 kts 334°
2026-04-24 22:46 -27.75037 -48.39530 2507 ft 189 kts 311°
2026-04-24 22:46 -27.74317 -48.40696 2334 ft 180 kts 303°
2026-04-24 22:46 -27.73673 -48.41895 2159 ft 178 kts 302°
2026-04-24 22:47 -27.73028 -48.43101 1979 ft 179 kts 302°
2026-04-24 22:47 -27.72383 -48.44304 1820 ft 178 kts 303°
2026-04-24 22:47 -27.71749 -48.45490 1692 ft 174 kts 303°
2026-04-24 22:47 -27.71147 -48.46614 1665 ft 159 kts 303°
2026-04-24 22:48 -27.70594 -48.47647 1592 ft 149 kts 303°
2026-04-24 22:48 -27.70063 -48.48640 1406 ft 149 kts 302°
2026-04-24 22:48 -27.69541 -48.49615 1091 ft 146 kts 303°
2026-04-24 22:48 -27.69002 -48.50611 812 ft 146 kts 302°
2026-04-24 22:49 -27.68490 -48.51581 481 ft 142 kts 303°
2026-04-24 22:49 -27.67968 -48.52551 209 ft 144 kts 302°
2026-04-24 22:49 -27.67456 -48.53479 24 ft 129 kts 300°
2026-04-24 22:49 -27.67099 -48.54145 22 ft 59 kts 301°
2026-04-24 22:50 -27.66996 -48.54336 27 ft 22 kts 301°
2026-04-24 22:50 -27.66948 -48.54427 24 ft 11 kts 294°
2026-04-24 22:50 -27.66961 -48.54501 24 ft 10 kts 229°
2026-04-24 22:50 -27.67019 -48.54542 23 ft 10 kts 210°
2026-04-24 22:51 -27.67077 -48.54581 23 ft 9 kts 211°
2026-04-24 22:51 -27.67131 -48.54613 23 ft 8 kts 199°
2026-04-24 22:51 -27.67186 -48.54607 25 ft 8 kts 152°
2026-04-24 22:51 -27.67215 -48.54597 24 ft 4 kts 199°
2026-04-24 22:52 -27.67240 -48.54611 23 ft 2 kts 204°
2026-04-24 22:52 -27.67244 -48.54613 23 ft 0 kts 204°